,,PressureMeas_1m,,PRMeasQMR101_1,,RHStat155_1m_1,,SRMeasQMS101R_1m,,TAStat155_1m_1,,GenWind_1,,GenWind_1,
2019-02-27, 00:00:06,VALID,916.47,VALID,0.0,VALID,90.149,VALID,0.005,VALID,21.952,INVALID,360.0,VALID,0.0,
2019-02-27, 00:01:06,VALID,916.472,VALID,0.0,VALID,89.834,VALID,0.001,VALID,22.033,INVALID,360.0,VALID,0.0,
2019-02-27, 00:02:06,VALID,916.474,VALID,0.0,VALID,90.585,VALID,0.004,VALID,22.025,INVALID,360.0,VALID,0.0,
2019-02-27, 00:03:06,VALID,916.449,VALID,0.0,VALID,90.07,VALID,0.003,VALID,22.013,INVALID,360.0,VALID,0.0,
2019-02-27, 00:04:06,VALID,916.418,VALID,0.0,VALID,89.447,VALID,0.004,VALID,22.109,INVALID,360.0,VALID,0.0,
2019-02-27, 00:05:06,VALID,916.421,VALID,0.0,VALID,89.959,VALID,-0.004,VALID,22.172,INVALID,360.0,VALID,0.0,
2019-02-27, 00:06:06,VALID,916.431,VALID,0.0,VALID,90.206,VALID,0.012,VALID,22.138,INVALID,360.0,VALID,0.0,
2019-02-27, 00:07:06,VALID,916.451,VALID,0.0,VALID,90.073,VALID,-0.006,VALID,22.126,INVALID,360.0,VALID,0.0,
2019-02-27, 00:08:06,VALID,916.436,VALID,0.0,VALID,89.915,VALID,-0.011,VALID,22.136,INVALID,360.0,VALID,0.0,
2019-02-27, 00:09:06,VALID,916.425,VALID,0.0,VALID,89.5,VALID,-0.011,VALID,22.155,INVALID,360.0,VALID,0.0,
2019-02-27, 00:10:06,VALID,916.407,VALID,0.0,VALID,89.017,VALID,-0.003,VALID,22.205,INVALID,360.0,VALID,0.0,
2019-02-27, 00:11:06,VALID,916.434,VALID,0.0,VALID,89.35,VALID,0.0,VALID,22.265,INVALID,360.0,VALID,0.0,
2019-02-27, 00:12:06,VALID,916.464,VALID,0.0,VALID,90.308,VALID,0.002,VALID,22.2,INVALID,360.0,VALID,0.0,
2019-02-27, 00:13:06,VALID,916.455,VALID,0.0,VALID,91.101,VALID,0.012,VALID,22.061,INVALID,360.0,VALID,0.0,
2019-02-27, 00:14:06,VALID,916.442,VALID,0.0,VALID,90.474,VALID,0.009,VALID,21.969,INVALID,360.0,VALID,0.0,
2019-02-27, 00:15:06,VALID,916.414,VALID,0.0,VALID,89.558,VALID,0.004,VALID,22.026,INVALID,360.0,VALID,0.0,
2019-02-27, 00:16:06,VALID,916.391,VALID,0.0,VALID,89.09,VALID,-0.0,VALID,22.142,INVALID,360.0,VALID,0.0,
2019-02-27, 00:17:06,VALID,916.386,VALID,0.0,VALID,89.263,VALID,-0.003,VALID,22.224,INVALID,360.0,VALID,0.0,
2019-02-27, 00:18:06,VALID,916.392,VALID,0.0,VALID,89.357,VALID,-0.003,VALID,22.204,INVALID,360.0,VALID,0.0,
2019-02-27, 00:19:06,VALID,916.363,VALID,0.0,VALID,90.106,VALID,0.013,VALID,22.11,INVALID,360.0,VALID,0.0,
2019-02-27, 00:20:06,VALID,916.375,VALID,0.0,VALID,89.726,VALID,-0.012,VALID,22.023,INVALID,360.0,VALID,0.0,
2019-02-27, 00:21:06,VALID,916.376,VALID,0.0,VALID,89.595,VALID,-0.005,VALID,22.039,INVALID,360.0,VALID,0.0,
2019-02-27, 00:22:06,VALID,916.349,VALID,0.0,VALID,89.329,VALID,0.004,VALID,22.084,INVALID,360.0,VALID,0.0,
2019-02-27, 00:23:06,VALID,916.338,VALID,0.0,VALID,89.217,VALID,0.009,VALID,22.124,INVALID,360.0,VALID,0.0,
2019-02-27, 00:24:06,VALID,916.315,VALID,0.0,VALID,89.147,VALID,0.008,VALID,22.167,INVALID,360.0,VALID,0.0,
2019-02-27, 00:25:06,VALID,916.292,VALID,0.0,VALID,89.664,VALID,0.01,VALID,22.135,INVALID,360.0,VALID,0.0,
2019-02-27, 00:26:06,VALID,916.288,VALID,0.0,VALID,90.008,VALID,0.006,VALID,22.084,INVALID,360.0,VALID,0.0,
2019-02-27, 00:27:06,VALID,916.259,VALID,0.0,VALID,90.546,VALID,0.004,VALID,22.023,INVALID,360.0,VALID,0.0,
2019-02-27, 00:28:06,VALID,916.246,VALID,0.0,VALID,89.98,VALID,0.001,VALID,22.014,INVALID,360.0,VALID,0.0,
2019-02-27, 00:29:06,VALID,916.194,VALID,0.0,VALID,89.918,VALID,-0.004,VALID,22.051,INVALID,360.0,VALID,0.0,
2019-02-27, 00:30:06,VALID,916.198,VALID,0.0,VALID,89.671,VALID,-0.023,VALID,22.065,INVALID,360.0,VALID,0.0,
2019-02-27, 00:31:06,VALID,916.191,VALID,0.0,VALID,89.442,VALID,-0.026,VALID,22.111,INVALID,360.0,VALID,0.0,
2019-02-27, 00:32:06,VALID,916.188,VALID,0.0,VALID,89.639,VALID,-0.008,VALID,22.143,INVALID,360.0,VALID,0.0,
2019-02-27, 00:33:06,VALID,916.196,VALID,0.0,VALID,89.733,VALID,-0.019,VALID,22.171,INVALID,360.0,VALID,0.0,
2019-02-27, 00:34:06,VALID,916.203,VALID,0.0,VALID,89.903,VALID,-0.025,VALID,22.152,INVALID,360.0,VALID,0.0,
2019-02-27, 00:35:06,VALID,916.212,VALID,0.0,VALID,89.644,VALID,-0.016,VALID,22.142,INVALID,360.0,VALID,0.0,
2019-02-27, 00:36:06,VALID,916.2,VALID,0.0,VALID,89.361,VALID,-0.01,VALID,22.151,INVALID,360.0,VALID,0.0,
2019-02-27, 00:37:06,VALID,916.172,VALID,0.0,VALID,88.987,VALID,-0.025,VALID,22.183,INVALID,360.0,VALID,0.0,
2019-02-27, 00:38:06,VALID,916.171,VALID,0.0,VALID,88.809,VALID,-0.016,VALID,22.225,INVALID,360.0,VALID,0.0,
2019-02-27, 00:39:06,VALID,916.159,VALID,0.0,VALID,88.666,VALID,-0.031,VALID,22.272,INVALID,360.0,VALID,0.0,
2019-02-27, 00:40:06,VALID,916.144,VALID,0.0,VALID,88.852,VALID,-0.033,VALID,22.28,INVALID,360.0,VALID,0.0,
2019-02-27, 00:41:06,VALID,916.156,VALID,0.0,VALID,88.732,VALID,-0.033,VALID,22.265,INVALID,360.0,VALID,0.0,
2019-02-27, 00:42:06,VALID,916.137,VALID,0.0,VALID,88.983,VALID,-0.028,VALID,22.273,INVALID,360.0,VALID,0.0,
2019-02-27, 00:43:06,VALID,916.109,VALID,0.0,VALID,89.077,VALID,0.007,VALID,22.247,INVALID,360.0,VALID,0.0,
2019-02-27, 00:44:06,VALID,916.155,VALID,0.0,VALID,89.803,VALID,0.023,VALID,22.192,INVALID,360.0,VALID,0.0,
2019-02-27, 00:45:06,VALID,916.194,VALID,0.0,VALID,90.363,VALID,0.024,VALID,22.157,INVALID,360.0,VALID,0.0,
2019-02-27, 00:46:06,VALID,916.183,VALID,0.0,VALID,90.517,VALID,0.034,VALID,22.108,INVALID,360.0,VALID,0.0,
2019-02-27, 00:47:06,VALID,916.141,VALID,0.0,VALID,90.176,VALID,0.016,VALID,22.062,INVALID,360.0,VALID,0.0,
2019-02-27, 00:48:06,VALID,916.17,VALID,0.0,VALID,90.5,VALID,0.009,VALID,22.085,INVALID,360.0,VALID,0.0,
2019-02-27, 00:49:06,VALID,916.188,VALID,0.0,VALID,90.348,VALID,0.01,VALID,22.072,INVALID,360.0,VALID,0.0,
2019-02-27, 00:50:06,VALID,916.225,VALID,0.0,VALID,89.016,VALID,0.01,VALID,22.128,INVALID,360.0,VALID,0.0,
2019-02-27, 00:51:06,VALID,916.214,VALID,0.0,VALID,88.361,VALID,0.01,VALID,22.25,INVALID,360.0,VALID,0.0,
2019-02-27, 00:52:06,VALID,916.212,VALID,0.0,VALID,88.41,VALID,0.001,VALID,22.304,INVALID,360.0,VALID,0.0,
2019-02-27, 00:53:06,VALID,916.199,VALID,0.0,VALID,88.713,VALID,0.012,VALID,22.301,INVALID,360.0,VALID,0.0,
2019-02-27, 00:54:06,VALID,916.193,VALID,0.0,VALID,86.096,VALID,0.011,VALID,22.312,INVALID,360.0,VALID,0.0,
2019-02-27, 00:55:06,VALID,916.19,VALID,0.0,VALID,85.911,VALID,0.009,VALID,22.395,INVALID,360.0,VALID,0.0,
2019-02-27, 00:56:06,VALID,916.177,VALID,0.0,VALID,84.751,VALID,0.017,VALID,22.55,INVALID,360.0,VALID,0.0,
2019-02-27, 00:57:06,VALID,916.177,VALID,0.0,VALID,83.707,VALID,0.005,VALID,22.642,INVALID,360.0,VALID,0.0,
2019-02-27, 00:58:06,VALID,916.142,VALID,0.0,VALID,82.387,VALID,-0.009,VALID,22.755,INVALID,360.0,VALID,0.0,
2019-02-27, 00:59:06,VALID,916.156,VALID,0.0,VALID,82.482,VALID,-0.011,VALID,22.81,INVALID,360.0,VALID,0.0,
2019-02-27, 01:00:06,VALID,916.131,VALID,0.0,VALID,82.061,VALID,-0.028,VALID,22.802,INVALID,360.0,VALID,0.0,
2019-02-27, 01:01:06,VALID,916.118,VALID,0.0,VALID,82.015,VALID,-0.025,VALID,22.817,INVALID,360.0,VALID,0.0,
2019-02-27, 01:02:06,VALID,916.127,VALID,0.0,VALID,83.007,VALID,-0.024,VALID,22.767,INVALID,360.0,VALID,0.0,
2019-02-27, 01:03:06,VALID,916.11,VALID,0.0,VALID,83.659,VALID,-0.029,VALID,22.678,INVALID,360.0,VALID,0.0,
2019-02-27, 01:04:06,VALID,916.104,VALID,0.0,VALID,84.421,VALID,-0.044,VALID,22.614,INVALID,360.0,VALID,0.0,
2019-02-27, 01:05:06,VALID,916.12,VALID,0.0,VALID,85.056,VALID,-0.02,VALID,22.56,INVALID,360.0,VALID,0.0,
2019-02-27, 01:06:06,VALID,916.1,VALID,0.0,VALID,85.179,VALID,-0.017,VALID,22.492,INVALID,360.0,VALID,0.0,
2019-02-27, 01:07:06,VALID,916.084,VALID,0.0,VALID,82.701,VALID,-0.02,VALID,22.587,INVALID,360.0,VALID,0.0,
2019-02-27, 01:08:06,VALID,916.063,VALID,0.0,VALID,81.738,VALID,-0.031,VALID,22.775,INVALID,360.0,VALID,0.0,
2019-02-27, 01:09:06,VALID,916.048,VALID,0.0,VALID,81.81,VALID,-0.028,VALID,22.836,INVALID,360.0,VALID,0.0,
2019-02-27, 01:10:06,VALID,916.035,VALID,0.0,VALID,82.073,VALID,-0.025,VALID,22.808,INVALID,360.0,VALID,0.0,
2019-02-27, 01:11:06,VALID,915.996,VALID,0.0,VALID,81.615,VALID,-0.032,VALID,22.79,INVALID,360.0,VALID,0.0,
2019-02-27, 01:12:06,VALID,915.985,VALID,0.0,VALID,82.275,VALID,-0.016,VALID,22.78,INVALID,360.0,VALID,0.0,
2019-02-27, 01:13:06,VALID,915.983,VALID,0.0,VALID,82.738,VALID,-0.023,VALID,22.702,INVALID,360.0,VALID,0.0,
2019-02-27, 01:14:06,VALID,915.979,VALID,0.0,VALID,82.787,VALID,-0.017,VALID,22.634,VALID,45.0,VALID,0.0,
2019-02-27, 01:15:06,VALID,915.968,VALID,0.0,VALID,83.193,VALID,-0.007,VALID,22.628,INVALID,360.0,VALID,0.0,
2019-02-27, 01:16:06,VALID,915.972,VALID,0.0,VALID,83.702,VALID,-0.005,VALID,22.588,INVALID,360.0,VALID,0.0,
2019-02-27, 01:17:06,VALID,915.945,VALID,0.0,VALID,83.789,VALID,0.008,VALID,22.539,INVALID,360.0,VALID,0.0,
2019-02-27, 01:18:07,VALID,915.922,VALID,0.0,VALID,83.954,VALID,-0.012,VALID,22.505,INVALID,360.0,VALID,0.0,
2019-02-27, 01:19:07,VALID,915.866,VALID,0.0,VALID,83.8,VALID,0.007,VALID,22.493,INVALID,360.0,VALID,0.0,
2019-02-27, 01:20:07,VALID,915.842,VALID,0.0,VALID,83.661,VALID,0.013,VALID,22.521,INVALID,360.0,VALID,0.0,
2019-02-27, 01:21:07,VALID,915.805,VALID,0.0,VALID,83.447,VALID,0.014,VALID,22.569,INVALID,360.0,VALID,0.0,
2019-02-27, 01:22:07,VALID,915.797,VALID,0.0,VALID,83.332,VALID,0.005,VALID,22.619,INVALID,360.0,VALID,0.0,
2019-02-27, 01:23:07,VALID,915.792,VALID,0.0,VALID,84.118,VALID,0.001,VALID,22.582,INVALID,360.0,VALID,0.0,
2019-02-27, 01:24:07,VALID,915.802,VALID,0.0,VALID,84.638,VALID,0.011,VALID,22.501,INVALID,360.0,VALID,0.0,
2019-02-27, 01:25:07,VALID,915.76,VALID,0.0,VALID,84.856,VALID,0.003,VALID,22.399,VALID,45.0,VALID,0.0,
2019-02-27, 01:26:07,VALID,915.742,VALID,0.0,VALID,84.944,VALID,0.006,VALID,22.355,INVALID,360.0,VALID,0.0,
2019-02-27, 01:27:07,VALID,915.721,VALID,0.0,VALID,84.513,VALID,-0.008,VALID,22.39,INVALID,360.0,VALID,0.0,
2019-02-27, 01:28:07,VALID,915.714,VALID,0.0,VALID,84.289,VALID,0.012,VALID,22.428,INVALID,360.0,VALID,0.0,
2019-02-27, 01:29:07,VALID,915.7,VALID,0.0,VALID,84.604,VALID,0.011,VALID,22.438,INVALID,360.0,VALID,0.0,
2019-02-27, 01:30:07,VALID,915.697,VALID,0.0,VALID,85.368,VALID,0.008,VALID,22.361,INVALID,360.0,VALID,0.0,
2019-02-27, 01:31:07,VALID,915.681,VALID,0.0,VALID,85.556,VALID,0.022,VALID,22.24,INVALID,360.0,VALID,0.0,
2019-02-27, 01:32:07,VALID,915.688,VALID,0.0,VALID,85.329,VALID,0.013,VALID,22.177,INVALID,360.0,VALID,0.0,
2019-02-27, 01:33:07,VALID,915.69,VALID,0.0,VALID,85.752,VALID,-0.001,VALID,22.149,VALID,45.0,VALID,0.0,
2019-02-27, 01:34:07,VALID,915.705,VALID,0.0,VALID,86.005,VALID,-0.008,VALID,22.15,INVALID,360.0,VALID,0.0,
2019-02-27, 01:35:07,VALID,915.706,VALID,0.0,VALID,85.918,VALID,0.003,VALID,22.179,INVALID,360.0,VALID,0.0,
2019-02-27, 01:36:07,VALID,915.694,VALID,0.0,VALID,85.879,VALID,0.018,VALID,22.184,INVALID,360.0,VALID,0.0,
2019-02-27, 01:37:07,VALID,915.682,VALID,0.0,VALID,86.105,VALID,0.006,VALID,22.17,INVALID,360.0,VALID,0.0,
2019-02-27, 01:38:07,VALID,915.669,VALID,0.0,VALID,86.226,VALID,0.004,VALID,22.125,INVALID,360.0,VALID,0.0,
2019-02-27, 01:39:07,VALID,915.647,VALID,0.0,VALID,86.127,VALID,0.006,VALID,22.13,INVALID,360.0,VALID,0.0,
2019-02-27, 01:40:07,VALID,915.651,VALID,0.0,VALID,85.778,VALID,-0.0,VALID,22.137,INVALID,360.0,VALID,0.0,
2019-02-27, 01:41:07,VALID,915.637,VALID,0.0,VALID,85.364,VALID,0.007,VALID,22.129,VALID,45.0,VALID,0.0,
2019-02-27, 01:42:07,VALID,915.644,VALID,0.0,VALID,85.43,VALID,0.007,VALID,22.069,INVALID,360.0,VALID,0.0,
2019-02-27, 01:43:07,VALID,915.613,VALID,0.0,VALID,85.584,VALID,0.001,VALID,22.042,VALID,45.0,VALID,0.0,
2019-02-27, 01:44:07,VALID,915.605,VALID,0.0,VALID,85.625,VALID,-0.011,VALID,22.033,VALID,45.0,VALID,0.0,
2019-02-27, 01:45:07,VALID,915.589,VALID,0.0,VALID,85.86,VALID,0.007,VALID,22.018,VALID,45.0,VALID,0.0,
2019-02-27, 01:46:07,VALID,915.574,VALID,0.0,VALID,86.018,VALID,-0.001,VALID,22.02,INVALID,360.0,VALID,0.0,
2019-02-27, 01:47:07,VALID,915.575,VALID,0.0,VALID,85.866,VALID,0.001,VALID,22.042,INVALID,360.0,VALID,0.0,
2019-02-27, 01:48:07,VALID,915.557,VALID,0.0,VALID,85.682,VALID,-0.005,VALID,22.052,INVALID,360.0,VALID,0.0,
2019-02-27, 01:49:07,VALID,915.556,VALID,0.0,VALID,85.671,VALID,-0.007,VALID,22.051,INVALID,360.0,VALID,0.0,
2019-02-27, 01:50:07,VALID,915.559,VALID,0.0,VALID,85.6,VALID,-0.002,VALID,22.066,INVALID,360.0,VALID,0.0,
2019-02-27, 01:51:07,VALID,915.556,VALID,0.0,VALID,85.895,VALID,0.0,VALID,22.061,INVALID,360.0,VALID,0.0,
2019-02-27, 01:52:07,VALID,915.544,VALID,0.0,VALID,85.906,VALID,-0.008,VALID,22.035,INVALID,360.0,VALID,0.0,
2019-02-27, 01:53:07,VALID,915.526,VALID,0.0,VALID,85.996,VALID,0.002,VALID,22.045,INVALID,360.0,VALID,0.0,
2019-02-27, 01:54:07,VALID,915.5,VALID,0.0,VALID,85.968,VALID,0.011,VALID,22.052,INVALID,360.0,VALID,0.0,
2019-02-27, 01:55:07,VALID,915.464,VALID,0.0,VALID,85.416,VALID,0.001,VALID,22.095,INVALID,360.0,VALID,0.0,
2019-02-27, 01:56:07,VALID,915.469,VALID,0.0,VALID,85.3,VALID,0.011,VALID,22.109,INVALID,360.0,VALID,0.0,
2019-02-27, 01:57:07,VALID,915.445,VALID,0.0,VALID,85.411,VALID,-0.001,VALID,22.127,INVALID,360.0,VALID,0.0,
2019-02-27, 01:58:07,VALID,915.458,VALID,0.0,VALID,84.951,VALID,0.025,VALID,22.135,INVALID,360.0,VALID,0.0,
2019-02-27, 01:59:07,VALID,915.445,VALID,0.0,VALID,84.903,VALID,0.018,VALID,22.148,INVALID,360.0,VALID,0.0,
2019-02-27, 02:00:07,VALID,915.451,VALID,0.0,VALID,84.587,VALID,0.018,VALID,22.176,INVALID,360.0,VALID,0.0,
2019-02-27, 02:01:07,VALID,915.47,VALID,0.0,VALID,84.791,VALID,0.015,VALID,22.156,VALID,45.0,VALID,0.0,
2019-02-27, 02:02:07,VALID,915.48,VALID,0.0,VALID,85.206,VALID,-0.001,VALID,22.085,INVALID,360.0,VALID,0.0,
2019-02-27, 02:03:07,VALID,915.494,VALID,0.0,VALID,85.373,VALID,0.018,VALID,22.029,INVALID,360.0,VALID,0.0,
2019-02-27, 02:04:07,VALID,915.51,VALID,0.0,VALID,85.319,VALID,0.016,VALID,22.042,INVALID,360.0,VALID,0.0,
2019-02-27, 02:05:07,VALID,915.505,VALID,0.0,VALID,85.31,VALID,0.019,VALID,22.048,INVALID,360.0,VALID,0.0,
2019-02-27, 02:06:07,VALID,915.508,VALID,0.0,VALID,84.91,VALID,0.023,VALID,22.073,VALID,45.0,VALID,0.0,
2019-02-27, 02:07:07,VALID,915.485,VALID,0.0,VALID,84.79,VALID,0.043,VALID,22.113,INVALID,360.0,VALID,0.0,
2019-02-27, 02:08:07,VALID,915.453,VALID,0.0,VALID,85.071,VALID,0.029,VALID,22.128,INVALID,360.0,VALID,0.0,
2019-02-27, 02:09:07,VALID,915.448,VALID,0.0,VALID,84.946,VALID,0.033,VALID,22.112,INVALID,360.0,VALID,0.0,
2019-02-27, 02:10:07,VALID,915.423,VALID,0.0,VALID,85.13,VALID,0.013,VALID,22.098,INVALID,360.0,VALID,0.0,
2019-02-27, 02:11:07,VALID,915.398,VALID,0.0,VALID,84.882,VALID,0.027,VALID,22.106,VALID,45.0,VALID,0.0,
2019-02-27, 02:12:07,VALID,915.386,VALID,0.0,VALID,85.071,VALID,0.026,VALID,22.11,INVALID,360.0,VALID,0.0,
2019-02-27, 02:13:07,VALID,915.371,VALID,0.0,VALID,85.211,VALID,0.01,VALID,22.137,INVALID,360.0,VALID,0.0,
2019-02-27, 02:14:07,VALID,915.371,VALID,0.0,VALID,85.136,VALID,0.022,VALID,22.129,INVALID,360.0,VALID,0.0,
2019-02-27, 02:15:07,VALID,915.35,VALID,0.0,VALID,85.44,VALID,-0.004,VALID,22.06,INVALID,360.0,VALID,0.0,
2019-02-27, 02:16:07,VALID,915.339,VALID,0.0,VALID,85.656,VALID,0.011,VALID,22.013,INVALID,360.0,VALID,0.0,
2019-02-27, 02:17:07,VALID,915.326,VALID,0.0,VALID,85.449,VALID,0.011,VALID,22.022,INVALID,360.0,VALID,0.0,
2019-02-27, 02:18:07,VALID,915.319,VALID,0.0,VALID,85.802,VALID,0.007,VALID,22.031,INVALID,360.0,VALID,0.0,
2019-02-27, 02:19:07,VALID,915.305,VALID,0.0,VALID,86.1,VALID,0.009,VALID,22.0,INVALID,360.0,VALID,0.0,
2019-02-27, 02:20:07,VALID,915.28,VALID,0.0,VALID,86.302,VALID,0.011,VALID,21.969,INVALID,360.0,VALID,0.0,
2019-02-27, 02:21:07,VALID,915.247,VALID,0.0,VALID,86.24,VALID,0.01,VALID,21.959,INVALID,360.0,VALID,0.0,
2019-02-27, 02:22:07,VALID,915.229,VALID,0.0,VALID,86.48,VALID,0.014,VALID,21.952,INVALID,360.0,VALID,0.0,
2019-02-27, 02:23:07,VALID,915.213,VALID,0.0,VALID,86.54,VALID,0.022,VALID,21.95,INVALID,360.0,VALID,0.0,
2019-02-27, 02:24:07,VALID,915.213,VALID,0.0,VALID,86.588,VALID,0.014,VALID,21.941,INVALID,360.0,VALID,0.0,
2019-02-27, 02:25:07,VALID,915.181,VALID,0.0,VALID,86.539,VALID,0.0,VALID,21.939,INVALID,360.0,VALID,0.0,
2019-02-27, 02:26:07,VALID,915.178,VALID,0.0,VALID,86.668,VALID,0.016,VALID,21.917,INVALID,360.0,VALID,0.0,
2019-02-27, 02:27:07,VALID,915.169,VALID,0.0,VALID,86.522,VALID,0.014,VALID,21.886,INVALID,360.0,VALID,0.0,
2019-02-27, 02:28:07,VALID,915.153,VALID,0.0,VALID,86.33,VALID,-0.014,VALID,21.944,INVALID,360.0,VALID,0.0,
2019-02-27, 02:29:07,VALID,915.15,VALID,0.0,VALID,86.571,VALID,-0.025,VALID,21.964,INVALID,360.0,VALID,0.0,
2019-02-27, 02:30:07,VALID,915.153,VALID,0.0,VALID,86.869,VALID,-0.03,VALID,21.912,INVALID,360.0,VALID,0.0,
2019-02-27, 02:31:07,VALID,915.152,VALID,0.0,VALID,87.331,VALID,-0.014,VALID,21.861,VALID,45.0,VALID,0.0,
2019-02-27, 02:32:07,VALID,915.136,VALID,0.0,VALID,87.546,VALID,-0.026,VALID,21.848,INVALID,360.0,VALID,0.0,
2019-02-27, 02:33:07,VALID,915.141,VALID,0.0,VALID,87.405,VALID,-0.013,VALID,21.864,INVALID,360.0,VALID,0.0,
2019-02-27, 02:34:07,VALID,915.146,VALID,0.0,VALID,87.477,VALID,-0.02,VALID,21.876,VALID,44.0,VALID,0.0,
2019-02-27, 02:35:07,VALID,915.121,VALID,0.0,VALID,87.834,VALID,-0.019,VALID,21.852,INVALID,360.0,VALID,0.0,
2019-02-27, 02:36:07,VALID,915.139,VALID,0.0,VALID,87.892,VALID,-0.007,VALID,21.85,INVALID,360.0,VALID,0.0,
2019-02-27, 02:37:07,VALID,915.133,VALID,0.0,VALID,88.149,VALID,-0.011,VALID,21.831,INVALID,360.0,VALID,0.0,
2019-02-27, 02:38:07,VALID,915.135,VALID,0.0,VALID,88.419,VALID,-0.016,VALID,21.804,INVALID,360.0,VALID,0.0,
2019-02-27, 02:39:07,VALID,915.111,VALID,0.0,VALID,88.538,VALID,-0.03,VALID,21.777,INVALID,360.0,VALID,0.0,
2019-02-27, 02:40:07,VALID,915.092,VALID,0.0,VALID,88.957,VALID,-0.043,VALID,21.742,INVALID,360.0,VALID,0.0,
2019-02-27, 02:41:07,VALID,915.065,VALID,0.0,VALID,89.241,VALID,-0.046,VALID,21.702,INVALID,360.0,VALID,0.0,
2019-02-27, 02:42:07,VALID,915.03,VALID,0.0,VALID,89.45,VALID,-0.03,VALID,21.673,INVALID,360.0,VALID,0.0,
2019-02-27, 02:43:07,VALID,915.026,VALID,0.0,VALID,89.814,VALID,-0.003,VALID,21.64,INVALID,360.0,VALID,0.0,
2019-02-27, 02:44:07,VALID,914.993,VALID,0.0,VALID,89.876,VALID,0.021,VALID,21.614,INVALID,360.0,VALID,0.0,
2019-02-27, 02:45:07,VALID,914.973,VALID,0.0,VALID,89.649,VALID,0.019,VALID,21.64,VALID,44.0,VALID,0.0,
2019-02-27, 02:46:07,VALID,914.958,VALID,0.0,VALID,89.547,VALID,0.01,VALID,21.698,INVALID,360.0,VALID,0.0,
2019-02-27, 02:47:07,VALID,914.943,VALID,0.0,VALID,89.458,VALID,0.012,VALID,21.697,INVALID,360.0,VALID,0.0,
2019-02-27, 02:48:07,VALID,914.91,VALID,0.0,VALID,89.637,VALID,0.015,VALID,21.676,INVALID,360.0,VALID,0.0,
2019-02-27, 02:49:07,VALID,914.906,VALID,0.0,VALID,89.768,VALID,0.02,VALID,21.699,INVALID,360.0,VALID,0.0,
2019-02-27, 02:50:07,VALID,914.91,VALID,0.0,VALID,89.845,VALID,0.025,VALID,21.686,INVALID,360.0,VALID,0.0,
2019-02-27, 02:51:07,VALID,914.919,VALID,0.0,VALID,90.304,VALID,0.026,VALID,21.625,INVALID,360.0,VALID,0.0,
2019-02-27, 02:52:07,VALID,914.929,VALID,0.0,VALID,90.933,VALID,0.025,VALID,21.559,INVALID,360.0,VALID,0.0,
2019-02-27, 02:53:07,VALID,914.957,VALID,0.0,VALID,91.306,VALID,0.026,VALID,21.496,INVALID,360.0,VALID,0.0,
2019-02-27, 02:54:07,VALID,914.966,VALID,0.0,VALID,91.419,VALID,0.016,VALID,21.464,INVALID,360.0,VALID,0.0,
2019-02-27, 02:55:07,VALID,914.98,VALID,0.0,VALID,91.933,VALID,-0.002,VALID,21.435,INVALID,360.0,VALID,0.0,
2019-02-27, 02:56:07,VALID,915.005,VALID,0.0,VALID,91.883,VALID,0.015,VALID,21.412,VALID,42.0,VALID,1.232,
2019-02-27, 02:57:07,VALID,914.99,VALID,0.0,VALID,92.327,VALID,0.009,VALID,21.38,INVALID,360.0,VALID,0.332,
2019-02-27, 02:58:07,VALID,914.993,VALID,0.0,VALID,92.291,VALID,0.001,VALID,21.369,INVALID,360.0,VALID,0.0,
2019-02-27, 02:59:07,VALID,914.998,VALID,0.0,VALID,92.081,VALID,0.011,VALID,21.368,INVALID,360.0,VALID,0.0,
2019-02-27, 03:00:07,VALID,915.004,VALID,0.0,VALID,92.258,VALID,0.028,VALID,21.372,INVALID,360.0,VALID,1.169,
2019-02-27, 03:01:07,VALID,915.004,VALID,0.0,VALID,92.415,VALID,0.021,VALID,21.328,VALID,43.0,VALID,1.594,
2019-02-27, 03:02:07,VALID,915.015,VALID,0.0,VALID,92.659,VALID,0.023,VALID,21.297,INVALID,360.0,VALID,0.555,
2019-02-27, 03:03:07,VALID,915.028,VALID,0.0,VALID,93.102,VALID,0.033,VALID,21.267,INVALID,360.0,VALID,0.0,
2019-02-27, 03:04:07,VALID,915.033,VALID,0.0,VALID,93.605,VALID,0.037,VALID,21.234,INVALID,360.0,VALID,0.0,
2019-02-27, 03:05:07,VALID,915.023,VALID,0.0,VALID,93.815,VALID,0.029,VALID,21.189,INVALID,360.0,VALID,0.0,
2019-02-27, 03:06:07,VALID,915.012,VALID,0.0,VALID,93.584,VALID,0.021,VALID,21.173,INVALID,360.0,VALID,0.0,
2019-02-27, 03:07:07,VALID,915.021,VALID,0.0,VALID,93.441,VALID,0.006,VALID,21.203,INVALID,360.0,VALID,0.0,
2019-02-27, 03:08:07,VALID,915.028,VALID,0.0,VALID,93.429,VALID,0.023,VALID,21.21,INVALID,360.0,VALID,0.0,
2019-02-27, 03:09:07,VALID,915.036,VALID,0.0,VALID,93.349,VALID,0.024,VALID,21.228,INVALID,360.0,VALID,0.0,
2019-02-27, 03:10:07,VALID,915.046,VALID,0.0,VALID,93.341,VALID,0.022,VALID,21.241,INVALID,360.0,VALID,0.0,
2019-02-27, 03:11:07,VALID,915.056,VALID,0.0,VALID,93.465,VALID,0.011,VALID,21.219,INVALID,360.0,VALID,0.0,
2019-02-27, 03:12:07,VALID,915.037,VALID,0.0,VALID,93.708,VALID,0.026,VALID,21.191,INVALID,360.0,VALID,0.0,
2019-02-27, 03:13:07,VALID,915.043,VALID,0.0,VALID,93.985,VALID,0.009,VALID,21.153,INVALID,360.0,VALID,0.0,
2019-02-27, 03:14:07,VALID,915.056,VALID,0.0,VALID,94.277,VALID,0.002,VALID,21.132,INVALID,360.0,VALID,0.0,
2019-02-27, 03:15:07,VALID,915.032,VALID,0.0,VALID,94.328,VALID,0.001,VALID,21.137,INVALID,360.0,VALID,0.0,
2019-02-27, 03:16:07,VALID,915.035,VALID,0.0,VALID,94.275,VALID,0.013,VALID,21.159,INVALID,360.0,VALID,0.0,
2019-02-27, 03:17:07,VALID,915.029,VALID,0.0,VALID,94.358,VALID,0.028,VALID,21.175,INVALID,360.0,VALID,0.0,
2019-02-27, 03:18:07,VALID,915.067,VALID,0.0,VALID,94.405,VALID,0.028,VALID,21.154,VALID,44.0,VALID,0.0,
2019-02-27, 03:19:07,VALID,915.067,VALID,0.0,VALID,94.602,VALID,0.016,VALID,21.101,VALID,44.0,VALID,0.0,
2019-02-27, 03:20:07,VALID,915.064,VALID,0.0,VALID,94.769,VALID,0.006,VALID,21.059,INVALID,360.0,VALID,0.0,
2019-02-27, 03:21:07,VALID,915.061,VALID,0.0,VALID,94.897,VALID,0.022,VALID,21.034,INVALID,360.0,VALID,0.0,
2019-02-27, 03:22:07,VALID,915.04,VALID,0.0,VALID,94.515,VALID,-0.004,VALID,21.086,INVALID,360.0,VALID,0.0,
2019-02-27, 03:23:06,VALID,915.026,VALID,0.0,VALID,94.105,VALID,0.015,VALID,21.144,INVALID,360.0,VALID,0.0,
2019-02-27, 03:24:06,VALID,915.026,VALID,0.0,VALID,93.759,VALID,0.016,VALID,21.198,INVALID,360.0,VALID,0.0,
2019-02-27, 03:25:06,VALID,915.049,VALID,0.0,VALID,93.598,VALID,0.011,VALID,21.239,INVALID,360.0,VALID,0.0,
2019-02-27, 03:26:06,VALID,915.025,VALID,0.0,VALID,93.524,VALID,0.018,VALID,21.258,VALID,44.0,VALID,0.0,
2019-02-27, 03:27:06,VALID,915.046,VALID,0.0,VALID,93.371,VALID,0.02,VALID,21.241,INVALID,360.0,VALID,0.0,
2019-02-27, 03:28:06,VALID,915.025,VALID,0.0,VALID,93.657,VALID,0.014,VALID,21.233,INVALID,360.0,VALID,0.0,
2019-02-27, 03:29:06,VALID,915.029,VALID,0.0,VALID,93.86,VALID,0.009,VALID,21.219,VALID,44.0,VALID,0.0,
2019-02-27, 03:30:06,VALID,915.017,VALID,0.0,VALID,94.012,VALID,0.007,VALID,21.197,VALID,44.0,VALID,0.0,
2019-02-27, 03:31:06,VALID,915.029,VALID,0.0,VALID,94.21,VALID,-0.003,VALID,21.17,INVALID,360.0,VALID,0.0,
2019-02-27, 03:32:06,VALID,915.02,VALID,0.0,VALID,94.129,VALID,0.001,VALID,21.156,VALID,44.0,VALID,0.0,
2019-02-27, 03:33:06,VALID,915.023,VALID,0.0,VALID,94.04,VALID,0.002,VALID,21.169,VALID,44.0,VALID,0.0,
2019-02-27, 03:34:06,VALID,915.013,VALID,0.0,VALID,94.209,VALID,0.021,VALID,21.163,INVALID,360.0,VALID,0.0,
2019-02-27, 03:35:06,VALID,915.009,VALID,0.0,VALID,93.856,VALID,0.002,VALID,21.171,INVALID,360.0,VALID,0.0,
2019-02-27, 03:36:06,VALID,914.992,VALID,0.0,VALID,93.384,VALID,0.009,VALID,21.201,INVALID,360.0,VALID,0.0,
2019-02-27, 03:37:06,VALID,914.986,VALID,0.0,VALID,93.136,VALID,0.018,VALID,21.223,INVALID,360.0,VALID,0.0,
2019-02-27, 03:38:06,VALID,914.956,VALID,0.0,VALID,92.565,VALID,0.003,VALID,21.279,INVALID,360.0,VALID,0.0,
2019-02-27, 03:39:06,VALID,914.936,VALID,0.0,VALID,92.137,VALID,-0.002,VALID,21.323,INVALID,360.0,VALID,0.0,